Location: Aurora Center
(43.5271°N, 98.5894°W)
Time: 00:47:43
(UTC-05:00)

YUBILEINY - Pass Details

Date: 06 August 2024
Orbit: 1478 x 1508 km, 82.5° (Epoch: 15 September)

Event Time Altitude Azimuth Distance (km) Brightness Sun altitude
Rises 21:52:58 0° 337° (NNW) 4,644 ? -10.8°
Reaches altitude 10° 21:57:24 10° 318° (NW) 3,663 ? -11.5°
Maximum altitude 22:01:55 15° 286° (WNW) 3,251 ? -12.1°
Drops below altitude 10° 22:06:27 10° 254° (WSW) 3,661 ? -12.8°
Sets 22:10:55 0° 234° (SW) 4,638 ? -13.4°
